Tracking 29790 objects as of 12-Oct-2024
HD Live streaming from Space Station
objects crossing your sky now

SL-14 DEB

Track SL-14 DEB now!
10-day predictions


NORAD ID: 45327
Int'l Code: 1991-056BR
Perigee: 1,056.2 km
Apogee: 1,187.1 km
Inclination: 82.6 °
Period: 107.6 minutes
Semi major axis: 7492 km
RCS: Unknown
Launch date: August 15, 1991
Source: Commonwealth of Independent States (former USSR) (CIS)
Launch site: PLESETSK MISSILE AND SPACE COMPLEX (PKMTR)

Note: This is SATELLITE DEBRIS
Your satellite tracking list
Your tracking list is empty




NASA's NSSDC Master Catalog

Two Line Element Set (TLE):
1 45327U 91056BR  24282.75946909  .00005714  00000-0  10473-1 0  9992
2 45327  82.5670 175.4234 0087403  15.1259 345.2458 13.38598193226980
Source of the keplerian elements: AFSPC